Location: Bismarck
(46.7731°N, 100.8200°W)
Time: 22:26:24
(UTC-06:00)

ISS - Pass Details

Date: 24 November 2017
Orbit: 403 x 407 km, 51.6° (Epoch: 12 December)

Event Time Altitude Azimuth Distance (km) Brightness Sun altitude
Rises 02:29:10 0° 294° (WNW) 2,327 - -54.4°
Reaches altitude 10° 02:31:17 10° 290° (WNW) 1,463 - -54.1°
Maximum altitude 02:34:28 51° 213° (SSW) 512 - -53.6°
Drops below altitude 10° 02:37:39 10° 136° (SE) 1,453 - -53.2°
Sets 02:39:45 0° 131° (SE) 2,308 - -52.9°
